Regional Weather Roundup
Issued by NWS Cleveland, OH

Home | Current Version | Previous Version | Text Only | Print | Product List | Glossary On
Versions: 1 2 3 4 5 6 7 8 9 10 11 12 13 14 15 16 17 18 19 20 21 22 23 24 25 26 27 28 29 30 31 32 33 34 35 36 37 38 39 40 41 42 43 44 45 46 47 48 49 50
000
ASUS41 KCLE 120212
RWRCLE
OHIO REGIONAL WEATHER ROUNDUP
NATIONAL WEATHER SERVICE WILMINGTON, OH
900 PM EST THU FEB 11 2016

NOTE: "FAIR" INDICATES FEW OR NO CLOUDS BELOW 12,000 FEET WITH NO
SIGNIFICANT WEATHER AND/OR OBSTRUCTIONS TO VISIBILITY.

OHZ001>008-015>018-024>027-034-035-043-044-120300-
   NORTHWEST OHIO

CITY           SKY/WX    TMP DP  RH WIND       PRES   REMARKS
DEFIANCE       MOCLDY    18  10  71 SW3       30.28S
FINDLAY        CLOUDY    16   8  71 S5        30.26F WCI   9
TOLEDO EXPRESS FAIR      14   4  64 SW5       30.26F WCI   6
TOLEDO EXEC    FAIR      15   5  64 SW6       30.28F WCI   6
LIMA           CLOUDY    17   9  70 S7        30.26F WCI   8
$$

OHZ009>014-019>023-028>033-038-089-120300-
   NORTHEAST OHIO

CITY           SKY/WX    TMP DP  RH WIND       PRES   REMARKS
CLE-HOPKINS    MOCLDY    14   4  64 SW8       30.29S WCI   3
CLE-LAKEFRONT  FLURRIES  19   8  62 SW13      30.27S WCI   6
CUY CO. ARPT   CLOUDY    18  12  79 SW13      30.25S WCI   4
LORAIN-ELYRIA  FAIR      10   1  67 W12       30.27R WCI  -5
ASHTABULA      CLOUDY    13   4  67 CALM      30.24S
AKRON-CANTON   FAIR      10   1  67 SW3       30.24S
WOOSTER        FAIR       5  -1  76 SW3       30.26S
MANSFIELD      CLOUDY    12   1  61 CALM      30.24S
YOUNGSTOWN     FAIR       7   5  91 SW7       30.23S WCI  -5
$$

OHZ042-051>053-060>062-070>072-077>081-120300-
  SOUTHWEST OHIO

CITY           SKY/WX    TMP DP  RH WIND       PRES   REMARKS
CINC-COVINGTON MOCLDY    20   7  57 N5        30.30S WCI  13
CINC-LUNKEN    FAIR      19  11  70 CALM      30.34F
HAMILTON       FAIR      15   9  76 CALM      30.32F
DAYTON         FAIR      17   8  67 CALM      30.29F
WRIGHT-PAT AFB MOCLDY    17   7  64 SE2       30.29S
DAYTON GENERAL FAIR      19   5  54 CALM      30.28F
WILMINGTON     FAIR      10   3  73 CALM      30.28F
$$

OHZ036-037-039>041-045>050-054>059-063>069-073>076-082>088-120300-
  CENTRAL AND SOUTHEAST OHIO

CITY           SKY/WX    TMP DP  RH WIND       PRES   REMARKS
COLUMBUS       MOCLDY    18   7  62 W3        30.30S
OSU AIRPORT    MOCLDY    17   9  70 SW5       30.29S WCI  10
BOLTON FIELD   FAIR      10   7  85 CALM      30.30F
RICKENBACK AFB MOCLDY    12   6  77 CALM      30.31S
NEWARK         CLOUDY    12   7  80 CALM      30.29S
MARION         MOCLDY    15   6  67 SW3       30.27F
LANCASTER      FAIR       5   1  83 CALM      30.31S
ZANESVILLE     FAIR      15   7  70 SW3       30.30R
NEW PHILLY     FAIR       9   2  73 CALM      30.29S
$$



USA.gov is the U.S. government's official web portal to all federal, state and local government web resources and services.